Weather History for Camarillo, CA

Change the Weather History Date:

Sunday, June 8, 2014

  Actual Average Record
Temperature  
Mean Temperature 65 °F 64 °F  
Max Temperature 72 °F 72 °F 78 °F (2005)
Min Temperature 57 °F 56 °F 43 °F (1950)
Degree Days  
Heating Degree Days 0 2  
Month to date heating degree days 7 16  
Since 1 June heating degree days 7 16  
Since 1 July heating degree days 1310 1959  
Cooling Degree Days 0 0  
Month to date cooling degree days 0 0  
Year to date cooling degree days 148 31  
Since 1 June cooling degree days 0 0  
Growing Degree Days 14 (Base 50)    
Moisture  
Dew Point 56 °F    
Average Humidity 74    
Maximum Humidity 87    
Minimum Humidity 61    
Precipitation  
Precipitation 0.00 in 0.01 in 0.02 in (1972)
Month to date precipitation 0.00 0.03  
Year to date precipitation 4.19 10.96  
Since 1 July precipitation 5.01 15.20  
Sea Level Pressure  
Sea Level Pressure 29.81 in    
Wind  
Wind Speed 4 mph (WSW)    
Max Wind Speed 12 mph    
Max Gust Speed -    
Visibility 8 miles    
Events      
T = Trace of Precipitation, MM = Missing Value Source: NWS Daily Summary

Daily Weather History Graph

Daily Weather History Graph

Search for Another Location

Airport:

Trip Planner

Search our weather history database for the weather conditions in past years. The results will help you decide how hot, cold, wet, or windy it might be!

Date:

Astronomy

Jun. 08, 2014 Rise Set
Actual Time 5:44 AM PDT 8:06 PM PDT
Civil Twilight 5:15 AM PDT 8:36 PM PDT
Nautical Twilight 4:39 AM PDT 9:11 PM PDT
Astronomical Twilight 4:00 AM PDT 9:51 PM PDT
Moon 3:40 PM PDT (6/8) 2:28 AM PDT (6/8)
Length of Visible Light 15h 20m
Length of Day
14h 22m
Waxing Gibbous, 78% of the Moon is Illuminated
Jun 8
Waxing Gibbous
Jun 12
Full
Jun 19
Last Quarter
Jun 27
New
Jul 5
First Quarter

Hourly Weather History & Observations

Time (PDT) Temp. Dew Point Humidity Pressure Visibility Wind Dir Wind Speed Gust Speed Precip Events Conditions
12:55 AM 57.9 °F 53.1 °F 84% 29.84 in 8.0 mi Calm Calm - N/A   Clear
1:55 AM 57.9 °F 54.0 °F 87% 29.83 in 7.0 mi Calm Calm - N/A   Partly Cloudy
2:18 AM - - N/A% 29.80 in 7.0 mi Calm Calm - N/A   Mostly Cloudy
2:35 AM - - N/A% 29.79 in 7.0 mi Calm Calm - N/A   Overcast
2:46 AM - - N/A% 29.79 in 6.0 mi Calm Calm - N/A   Haze
2:55 AM - - N/A% 29.79 in 7.0 mi Calm Calm - N/A   Overcast
3:55 AM - - N/A% 29.80 in 6.0 mi Calm Calm - N/A   Haze
4:06 AM - - N/A% 29.80 in 6.0 mi NNW 3.5 mph - N/A   Haze
4:40 AM - - N/A% 29.80 in 6.0 mi NW 4.6 mph - N/A   Haze
4:55 AM - - N/A% 29.81 in 7.0 mi West 5.8 mph - N/A   Overcast
5:55 AM - - N/A% 29.81 in 6.0 mi Calm Calm - N/A   Haze
6:55 AM - - N/A% 29.82 in 4.0 mi Calm Calm - N/A   Haze
7:55 AM - - N/A% 29.83 in 5.0 mi Calm Calm - N/A   Haze
8:55 AM 60.1 °F 55.0 °F 83% 29.86 in 6.0 mi Variable 3.5 mph - N/A   Haze
9:55 AM 61.0 °F 55.9 °F 83% 29.87 in 5.0 mi Variable 3.5 mph - N/A   Haze
10:35 AM 64.4 °F 55.4 °F 73% 29.84 in 9.0 mi Variable 5.8 mph - N/A   Overcast
10:55 AM 64.0 °F 55.9 °F 75% 29.87 in 10.0 mi SW 4.6 mph - N/A   Overcast
11:51 AM 66.2 °F 57.2 °F 73% 29.83 in 9.0 mi SW 9.2 mph - N/A   Mostly Cloudy
11:55 AM 66.9 °F 57.0 °F 70% 29.86 in 9.0 mi WSW 11.5 mph - N/A   Mostly Cloudy
12:13 PM 68.0 °F 57.2 °F 68% 29.83 in 9.0 mi WSW 10.4 mph - N/A   Scattered Clouds
12:55 PM 69.1 °F 57.0 °F 65% 29.85 in 9.0 mi SW 8.1 mph - N/A   Partly Cloudy
1:55 PM 68.0 °F 57.0 °F 68% 29.85 in 10.0 mi WSW 10.4 mph - N/A   Partly Cloudy
2:55 PM 70.0 °F 57.0 °F 63% 29.81 in 10.0 mi Variable 6.9 mph - N/A   Clear
3:55 PM 71.1 °F 57.0 °F 61% 29.79 in 10.0 mi WSW 6.9 mph - N/A   Clear
4:55 PM 70.0 °F 57.0 °F 63% 29.77 in 10.0 mi SW 6.9 mph - N/A   Clear
5:55 PM 69.1 °F 57.0 °F 65% 29.76 in 10.0 mi WSW 5.8 mph - N/A   Clear
6:55 PM 64.9 °F 55.9 °F 73% 29.76 in 10.0 mi West 9.2 mph - N/A   Clear
7:48 PM 60.8 °F 55.4 °F 82% 29.78 in 9.0 mi West 8.1 mph - N/A   Mostly Cloudy
7:55 PM 61.0 °F 55.9 °F 83% 29.78 in 4.0 mi West 5.8 mph - N/A   Haze
8:26 PM 60.8 °F 55.4 °F 82% 29.79 in 8.0 mi WSW 3.5 mph - N/A   Overcast
8:55 PM 59.0 °F 55.9 °F 90% 29.82 in 7.0 mi West 5.8 mph - N/A   Overcast
9:55 PM - - N/A% 29.80 in 6.0 mi Calm Calm - N/A   Haze
10:55 PM - - N/A% 29.81 in 6.0 mi West 3.5 mph - N/A   Haze
11:55 PM - - N/A% 29.81 in 6.0 mi Calm Calm - N/A   Haze